www.pogodaiklimat.ru

Погода и климат >> Архив погоды >> Болгария >> Сандански


ПОГОДА в Сандански

  • Прогноз погоды в Сандански
  • Монитор погоды в Сандански

АРХИВ ПОГОДЫ в Сандански

Время (UTC), дата Ветер
(напр.,м/с)
 
Видим.   Явления Облачность Т
(С)
Тd
(С)
f
(%)
Тe
(С)
Тes
(С)
Комфортность P
(гПа)
Po
(гПа)
Тmin
(С)
Tmax
(С)
R
(мм)
R24
(мм)
S
(см)
12 15.05 ЮВ 3 14 км 8/5 600 м
[Cb calv Ci sp]
+20.3 +12.2 60 +23 +29 комфорт 1009.1 985.3 +13.6 +21.1
15 15.05 Ю 4 18 км {гроза, ливн. осадки} 6/3 600 м
[Cu med, cong Ci sp]
+18.8 +11.0 60 +19 +22 1009.5 985.5 +13.6 +21.1
18 15.05 В 1 25 км {гроза, ливн. осадки} 5/3 1000 м
[Cu med, cong Ac trans Ci fib]
+18.6 +10.5 59 +20 +20 1008.4 984.4 +13.6 +21.1 0.1
21 15.05 З 3 28 км 8/3 1000 м
[Cu med, cong Ac trans Ci fib]
+15.8 +11.8 77 +15 +15 1010.1 985.9 +15.6 +18.9
00 16.05 З 3 18 км {ливн. осадки} 9/9 600 м
[Cu Sc]
+14.0 +12.5 91 +13 +13 1009.9 985.5 +13.6 +18.9 1
03 16.05 СЗ 2 18 км 10/10 600 м
[Cu Sc]
+13.6 +12.1 91 +13 +13 1009.4 985.0 +13.2 +18.9
06 16.05 СЗ 3 15 км 8/5 600 м
[Cb calv Ac trans Ci fib]
+15.2 +12.1 82 +14 +16 1009.0 984.8 +13.2 +18.9 1
09 16.05 ЮВ 2 20 км 5/5 1000 м
[Cb calv]
+18.8 +12.4 66 +20 +29 1009.4 985.4 +15.2 +19.2
12 16.05 Ю 1 15 км 8/8 600 м
[Cb calv]
+18.0 +12.3 69 +19 +23 1008.9 984.9 +15.2 +20.4
15 16.05 З 3 28 км 6/4 1000 м
[Cu med, cong Ac trans Ci fib]
+18.8 +11.6 63 +20 +22 1008.9 984.9 +15.2 +20.4
18 16.05 В 1 30 км 3/3 1000 м
[Cu med, cong Ac trans Ci fib]
+16.6 +11.5 72 +17 +17 1008.8 984.7 +15.2 +20.4
21 16.05 З 3 30 км 3/3 1000 м
[Cu med, cong]
+13.8 +11.2 84 +13 +13 1010.4 986.0 +13.6 +16.9
00 17.05 СЗ 2 30 км 4/3 1000 м
[Cu med, cong Ac lent]
+11.6 +10.1 91 +10 +10 1010.3 985.7 +11.4 +16.9
03 17.05 штиль 0 30 км 3/0
[Ac trans]
+10.4 +8.8 90 +10 +10 1010.4 985.7 +10.2 +16.9
06 17.05 СЗ 1 30 км 3/0
[Ac trans]
+13.4 +10.8 84 +14 +19 1010.8 986.3 +10.2 +16.9
09 17.05 ЮЗ 2 23 км 3/3 1000 м
[Cu med, cong Ci fib]
+18.8 +10.3 58 +20 +32 1010.1 986.1 +13.4 +19.1
12 17.05 ЮЗ 3 28 км 3/3 1000 м
[Cb calv]
+22.2 +11.8 52 +25 +34 комфорт 1008.4 984.7 +13.4 +22.6
15 17.05 ЮЗ 2 30 км 3/3 1000 м
[Cb calv]
+23.6 +12.1 48 +25 +29 комфорт 1007.0 983.5 +13.4 +24.0
18 17.05 В 2 30 км 3/3 1000 м
[Cu med, cong]
+19.6 +12.6 64 +22 +22 комфорт 1008.2 984.3 +13.4 +24.0
21 17.05 В 2 30 км 1/1 1000 м
[Cu med, cong]
+16.8 +11.5 71 +17 +17 1009.7 985.6 +16.6 +19.9
00 18.05 З 1 30 км ясно +13.9 +10.5 80 +14 +14 1010.7 986.3 +13.8 +19.9
03 18.05 В 1 30 км ясно +11.4 +9.8 90 +11 +11 1010.6 986.0 +11.2 +19.9
06 18.05 З 2 30 км 3/0
[Ci fib]
+16.0 +11.0 72 +16 +21 1010.8 986.6 +10.9 +19.9
09 18.05 В 2 30 км 3/1 1000 м
[Cu med, cong Ci fib]
+20.9 +11.4 55 +24 +39 комфорт 1010.0 986.2 +16.0 +21.4
12 18.05 ЮВ 3 30 км 9/3 1500 м
[Cu med, cong Cs]
+26.0 +11.1 39 +27 +35 жарко 1007.5 984.1 +16.0 +26.1
15 18.05 Ю 2 30 км 8/1 1500 м
[Cu hum Cs]
+27.0 +10.0 34 +27 +32 жарко 1006.8 983.5 +16.0 +27.4
18 18.05 В 2 30 км 3/1 1000 м
[Cu med, cong Ci fib]
+22.8 +10.6 46 +25 +25 комфорт 1007.3 983.7 +16.0 +27.4
21 18.05 З 2 30 км 9/1 1000 м
[Cu med, cong Ac trans Cs]
+18.6 +10.1 58 +20 +20 1009.1 985.1 +18.4 +23.1
00 19.05 З 3 30 км 9/1 1000 м
[Cu med, cong Ac trans Cs]
+16.0 +10.4 69 +16 +16 1009.6 985.4 +15.9 +23.1
03 19.05 штиль 0 30 км 3/1 1000 м
[Cu med, cong Ac trans]
+14.4 +10.6 78 +14 +14 1009.7 985.4 +14.2 +23.1
06 19.05 С 1 30 км 8/1 1000 м
[Cu hum Ac lent Cs]
+18.4 +12.8 70 +20 +24 1009.5 985.5 +13.7 +23.1
09 19.05 В 3 30 км 10/8 1000 м
[Cb calv Cs]
+22.3 +12.2 53 +25 +27 комфорт 1009.2 985.5 +18.4 +22.5
12 19.05 В 3 30 км 10/0
[Ac As]
+24.4 +14.4 54 +27 +31 жарко 1007.9 984.4 +18.4 +24.8
15 19.05 В 2 30 км 9/1 1000 м
[Cu med, cong Ac As Ci sp]
+22.1 +12.7 55 +25 +27 комфорт 1007.8 984.1 +18.4 +25.0
18 19.05 В 3 30 км 8/0
[Ac trans Ci sp]
+20.2 +11.9 59 +22 +22 комфорт 1006.9 983.1 +18.4 +25.0
21 19.05 В 3 30 км 8/0
[Ci]
+18.8 +9.2 54 +20 +20 1007.7 983.8 +18.0 +20.5
00 20.05 З 4 30 км 8/0
[Ci]
+15.4 +10.1 71 +14 +14 1007.8 983.6 +15.4 +20.5
03 20.05 С 1 30 км 6/0
[Ci]
+13.8 +9.8 77 +14 +14 1009.1 984.7 +13.2 +20.5
06 20.05 СЗ 2 30 км 8/0
[Ac trans Ci]
+17.0 +12.3 74 +17 +21 1008.6 984.5 +12.8 +20.5
09 20.05 В 5 30 км 4/3 1000 м
[Cu med, cong Ci fib]
+22.9 +11.0 47 +25 +31 комфорт 1008.6 985.0 +16.5 +23.5
12 20.05 Ю 4 30 км 8/5 600 м
[Cu med, cong Ac trans]
+25.0 +7.4 32 +25 +29 комфорт 1009.3 985.8 +16.5 +26.5
15 20.05 СЗ 7 28 км 8/8 600 м
[Cb calv]
+19.6 +10.0 54 +20 +21 1009.3 985.4 +16.5 +26.5
18 20.05 З 4 23 км слаб. ливневой дождь {гроза} 8/8 1000 м
[Cb cap]
+15.7 +13.9 89 +15 +15 1011.1 986.9 +16.5 +26.5 2
21 20.05 З 3 28 км {ливн. осадки} 4/3 1000 м
[Cu med, cong Ac trans]
+13.9 +12.8 93 +13 +13 1012.1 987.7 +13.8 +16.0
00 21.05 З 2 30 км {ливн. осадки} 5/3 1000 м
[Cu med, cong Ac trans Ci fib]
+12.6 +11.5 93 +12 +12 1013.1 988.5 +12.4 +16.0 0.4
03 21.05 СЗ 1 30 км 1/1 1000 м
[Cu med, cong]
+10.9 +10.3 96 +10 +10 1013.5 988.8 +10.6 +16.0
06 21.05 З 3 30 км 4/1 1500 м
[Cu hum Ci fib]
+14.3 +12.1 87 +13 +17 1013.6 989.2 +10.4 +16.0 0.4
09 21.05 В 2 30 км 3/3 1500 м
[Cu med, cong]
+21.4 +8.6 44 +23 +35 комфорт 1012.7 988.8 +14.3 +21.6
12 21.05 В 1 30 км в посл. час ливневой дождь 4/4 1000 м
[Cb calv]
+23.2 +7.2 36 +24 +36 комфорт 1012.1 988.4 +14.3 +23.6 0.2
15 21.05 З 3 30 км 3/3 1000 м
[Cu med, cong]
+25.2 +4.7 27 +25 +28 комфорт 1011.8 988.2 +14.3 +25.5
18 21.05 З 2 30 км 6/6 1000 м
[Cu med, cong]
+21.8 +5.0 33 +22 +22 комфорт 1011.6 987.8 +14.3 +25.5 0.2
21 21.05 З 3 30 км ясно +16.2 +6.2 51 +16 +16 1013.5 989.2 +16.0 +22.1
00 22.05 З 4 30 км 3/1 1000 м
[Cu hum Ac trans]
+13.6 +7.8 68 +12 +12 1013.5 989.1 +13.2 +22.1
03 22.05 З 3 30 км 1/1 1000 м
[Cu med, cong]
+11.1 +7.6 79 +9 +9 1014.6 989.8 +10.9 +22.1
06 22.05 ЮВ 1 30 км 3/1 1000 м
[Cu med, cong Ci fib]
+16.2 +9.3 64 +17 +23 1014.9 990.6 +10.4 +22.1
09 22.05 ЮВ 2 30 км 8/1 1000 м
[Cu med, cong Ac trans Cs]
+21.4 +8.1 42 +22 +32 комфорт 1013.7 989.8 +16.2 +21.8

 

Местоположение метеостанции Сандански (Болгария): широта 41.52 долгота 23.27 высота над уровнем моря 207 м.

В архиве по умолчанию представлена погода в Сандански за последнюю неделю. Архивные данные за месяц целиком и за предыдущие месяцы, начиная с января 2011 года, Вы можете получить, выбрав интересующий диапазон дат из раскрывающегося списка и нажав кнопку "Ввод!".


*Определитесь, кто Вы:
робот инопланетянин человек

Внимание! Время в таблицах - всемирное. Для получения местного времени необходимо прибавить поправку, которая равна 2 ч.

Смотрите также архив погоды в соседних городах и на ближайших метеорологических станциях:

Погода в Берово (Македония) (41 км)
Погода в Струмице (Македония) (53 км)
Погода в Серре (Греция) (56 км)
Погода в Винице (Македония) (75 км)
Погода в Гевгелии (Македония) (76 км)
Погода на Мусале (Болгария) (78 км)
Погода в Демир-Капия (Македония) (86 км)
Погода в Штипе (Македония) (94 км)
Погода в Доксато (Греция) (96 км)
Погода в Крива-Паланке (Македония) (109 км)

Пояснения к столбцам:

Ветер - указаны скорость ветра в м/с - средняя за 10 мин, порывы в срок и между сроками (в фигурных скобках) и направление, откуда дует ветер: С - северный, СВ - северо-восточный, В - восточный, ЮВ - юго-восточный, Ю - южный, ЮЗ - юго-западный, З - западный, СЗ - северо-западный.
Видимость - горизонтальная дальность видимости в метрах или километрах. При видимости от 1 до 10 км при отсутствии осадков обычно наблюдается дымка, при ухудшении видимости до 1 км и менее - туман. В сухую погоду видимость может ухудшаться дымом, пылью или мглою.
Явления - указаны атмосферные явления, наблюдавшиеся в срок или в последний час перед сроком; фигурными скобками обозначены явления, наблюдавшиеся между сроками (за 1-3 часа до срока); квадратными скобками обозначены град или гололедные отложения с указанием их диаметра в мм.
Облачность - указаны через наклонную черту общая и нижняя облачность в баллах и высота нижней границы облаков в метрах; квадратными скобками обозначены формы облаков: Ci - перистые, Cs - перисто-слоистые, Cc - перисто-кучевые, Ac - высококучевые, As - высокослоистые, Sc - слоисто-кучевые, Ns - слоисто-дождевые, Cu - кучевые, Cb - кучево-дождевые. Подробнее классификацию облаков см. в Атласе облаков (PDF).
T - Температура воздуха - температура, измеренная на высоте 2 м над землей.
Td - Температура точки росы - температура, при понижении до которой содержащийся в воздухе водяной пар достигнет насыщения.
f - Относительная влажность воздуха - влажноcть воздуха, измеренная на высоте 2 м над землей.
Te - Эффективная температура - температура, которую ощущает одетый по сезону человек в тени. Характеристика душности погоды. При расчете учитывается влияние влажности воздуха и скорости ветра на теплоощущения человека.
Tes - Эффективная температура на солнце - температура, которую ощущает человек, с поправкой на солнечный нагрев. Характеристика знойности погоды. Зависит от высоты солнца над горизонтом, облачности и скорости ветра. Ночью, в пасмурную погоду, а также при ветре 12 м/с и более поправка равна нулю.
P - Атмосферное давление - приведенное к уровню моря атмосферное давление.
Po - Атмосферное давление - измеренное на уровне метеостанции атмосферное давление.
Tmin - Минимальная температура - минимум температуры воздуха на высоте 2 м над землей.
Tmax - Максимальная температура - максимум температуры воздуха на высоте 2 м над землей.
R - Количество осадков - Количество выпавших осадков за период времени, мм. При наведении курсора мыши на число - период времени, за который выпало указанное количество осадков.
R24 - Количество осадков - Количество выпавших осадков за 24 часа, мм.
S - Снежный покров - Высота снежного покрова, см. При наведении курсора мыши на число - состояние снежного покрова и степень покрытия местности в баллах.